798  
ASUS41 KAKQ 141815  
RWRAKQ  
 
REGIONAL WEATHER ROUNDUP  
NATIONAL WEATHER SERVICE WAKEFIELD VA  
100 PM EST THU DEC 14 2017  
 
NOTE: "FAIR" INDICATES FEW OR NO CLOUDS BELOW 12,000 FEET WITH NO  
SIGNIFICANT WEATHER AND/OR S TO VISIBILITY
. * = DENOTES  
STATION MAY NOT REPORT PRECIPITATION (E.G., RAIN,SNOW,ETC.),
 
THUNDER OR FOG.  
 
VAZ042-051-052>054-056-141900-  
NORTHERN VIRGINIA  
 
CITY SKY/WX TMP DP RH WIND PRES REMARKS
 
WASH NATIONAL PTSUNNY 41 16 36 NW21G31 29.88S  
DULLES PTSUNNY 37 17 44 NW12G22 29.89R  
FORT BELVOIR MOSUNNY 40 16 37 NW15G28 29.88S  
QUANTICO MOSUNNY 43 19 38 N18 29.89R  
FREDERICKSBRG* SUNNY 42 25 50 N13G20 29.86S  
STAFFORD* SUNNY 40 20 46 N16G24 29.91S  
WARRENTON SUNNY 43 15 32 N15G21 29.86F  
CULPEPER* SUNNY 43 17 35 N14G21 29.87F  
MANASSAS* MOSUNNY 41 17 38 NW18G28 29.88F  
LEESBURG* CLOUDY 37 21 52 N12 29.89F  
WINCHESTER PTSUNNY 36 18 48 NW15G24 29.86S  
FRONT ROYAL* MOCLDY 37 18 44 MISG 29.85F  
LURAY* CLOUDY 41 19 42 N3 29.84S  

 
 
VAZ048-049-060>072-079>083-141900-  
CENTRAL AND SOUTH CENTRAL VIRGINIA  
 
CITY SKY/WX TMP DP RH WIND PRES REMARKS
 
RICHMOND CLOUDY 52 23 32 NW10 29.83R  
CHESTERFIELD* NOT AVBL  
PETERSBURG* CLOUDY 50 21 32 N8 29.84R  
HANOVER SUNNY 48 23 37 NE6 29.84R  
TAPPAHANNOCK* SUNNY 47 24 40 NW12G18 29.84S  
QUINTON* FAIR 47 25 41 NW9 29.82S  
CHARLOTTSVILLE SUNNY 45 21 38 NW5 29.84R  
GORDONSVILLE* CLEAR 45 20 37 CALM 29.84S  
ORANGE* PTSUNNY 45 21 39 NW9 29.83F  
LOUISA* MOSUNNY 46 20 35 N5 29.88R  
BUMPASS* FAIR 45 19 35 N5 29.83R  
FARMVILLE* CLOUDY 51 26 37 N5 29.83R  
CREWE* FAIR 51 26 37 NW8 29.82R  
FORT PICKETT* NOT AVBL  
CHASE CITY* FAIR 51 27 40 NW8G17 29.84S  
CLARKSVILLE* FAIR 54 27 35 W8 29.83F  
SOUTH HILL* SUNNY 52 28 39 NW5 29.88S  
LAWRENCEVILLE* FAIR 53 25 33 NW7 29.82S  
EMPORIA* SUNNY 52 28 40 W8G18 29.84S  

 
 
VAZ088>098-141900-  
SOUTHEAST VIRGINIA  
 
CITY SKY/WX TMP DP RH WIND PRES REMARKS
 
NORFOLK SUNNY 53 25 33 N7 29.82R  
VIRGINIA BEACH MOSUNNY 53 25 33 NW17G24 29.82R  
NORFOLK NAVAL MOSUNNY 54 26 34 NW9 29.84R  
WEST POINT* CLOUDY N/A N/A N/A N9 29.85R  
SALUDA* FAIR 45 28 51 NW6 29.83R  
NEWPORT NEWS CLOUDY 51 25 36 N10 29.83R  
LANGLEY AFB MOSUNNY 52 26 36 N15 29.82R  
FORT EUSTIS CLOUDY 51 25 36 NW10 29.81R  
WILLIAMSBURG* CLOUDY 55 28 35 CALM 29.83S  
HR EXEC AP* FAIR 54 27 35 NW8G17 29.83R  
FRANKLIN* SUNNY 53 26 35 NW12G22 29.83R  
US460-WAKEFLD SUNNY 53 26 35 VRB6 29.83R  

 
 
VAZ020-022-025-037-045-141900-  
WEST CENTRAL AND SOUTHWEST VIRGINIA  
 
CITY SKY/WX TMP DP RH WIND PRES REMARKS
 
STAUNTON* PTSUNNY 40 19 42 W7 29.85R  
WAYNESBORO* PTCLDY 39 19 43 NW6 29.83R  
HOT SPRINGS VA FLURRIES 27 16 62 W9 29.76R  
LYNCHBURG CLOUDY 45 19 35 VRB5 29.85R  
DANVILLE SUNNY 52 26 36 NW8G18 29.85S  
SOUTH BOSTON* FAIR 53 25 33 NW12 29.84S  
MARTINSVILLE SUNNY 50 24 35 CALM 29.86S  
ROANOKE MOSUNNY 43 21 41 NW13 29.88R  
BLACKSBURG CLOUDY 40 26 57 NW10 29.87S  
DUBLIN* CLOUDY 40 24 54 W10 29.86S  
MARION* CLOUDY 39 22 50 W12 29.86S  
HILLSVILLE* SUNNY 38 23 55 NW14 29.80F  
RICHLANDS* CLOUDY 33 25 71 NW3 29.86S  
WISE* CLOUDY 34 27 75 N3 29.88R  
ABINGDON* CLOUDY 41 27 57 N8 29.87S  

 
 
MDZ021>025-VAZ099-100-141900-  
SOUTHERN MARYLAND AND THE DELMARVA PENINSULA  
 
CITY SKY/WX TMP DP RH WIND PRES REMARKS
 
PATUXENT RIVER MOSUNNY 43 24 47 NW26G32 29.84R  
BAY BRIDGE APT SUNNY 39 19 45 NW15G29 29.87S  
LEONARDTOWN SUNNY 41 25 52 NW10G24 29.85S  
DOVER MOSUNNY 38 25 59 NW18G28 29.85R  
GEORGETOWN SUNNY 42 21 43 NW15G31 29.83R  
EASTON MOSUNNY 41 21 45 NW17G25 29.90R  
CAMBRIDGE CLOUDY 41 27 56 NW18 29.85R  
SALISBURY SUNNY 42 27 55 NW23G31 29.82R  
OCEAN CITY MOSUNNY 43 28 55 N21G31 29.82R  
WALLOPS ISLAND SUNNY 46 24 42 NW14G29 29.81R  
ACCOMACK* SUNNY 47 26 45 NW14G28 29.82S  

 
 
NCZ012>017-030>032-141900-  
NORTH CENTRAL AND EASTERN NORTH CAROLINA  
 
CITY SKY/WX TMP DP RH WIND PRES REMARKS
 
ROANOKE RAPIDS FAIR 54 28 37 W10G16 29.84S  
RALEIGH MOSUNNY 55 24 30 W13G18 29.85F  
ELIZABETH CITY SUNNY 57 31 37 W17G23 29.82R  
AHOSKIE* SUNNY 54 27 35 NW5 29.83S  
EDENTON* SUNNY 57 29 33 W9 29.83S  
CURRITUCK* SUNNY 55 27 34 W10G20 29.81S  
KILL DEVIL HLS SUNNY 49 30 48 CALM 29.81S  
MANTEO SUNNY 51 30 44 NW8 29.83S  
CAPE HATTERAS SUNNY 52 37 56 W9 29.86R  
TARBORO* NOT AVBL  
GOLDSBORO SUNNY 58 26 30 W9 29.84S  
WASHINGTON SUNNY 55 26 32 W9 29.85S  
GREENVILLE SUNNY 54 28 37 NW8 N/A  
NEW BERN SUNNY 57 31 37 W8 29.85F  
WILMINGTON SUNNY 60 30 32 W9 29.86F  

 
 
VAZ048-141900-  
ELSEWHERE  
 
CITY SKY/WX TMP DP RH WIND PRES REMARKS
 
HARRISBURG PA MOSUNNY 33 17 51 NW13 29.87R WCI 24  
BALTIMORE MOSUNNY 37 16 42 NW12G22 29.88R  
ANNAPOLIS SUNNY 39 18 42 NW14G31 29.88R  
ANDREWS AFB SUNNY 39 16 38 W20G25 29.86F  
PHILADELPHIA MOSUNNY 34 19 54 NW9G20 29.85R  
HENDERSON NC SUNNY 51 24 34 W9 29.84S  
GREENSBORO MOSUNNY 52 25 35 NW9 29.84S  
ROCKY MOUNT SUNNY 56 26 31 NW10 29.85S  

 
 
VAZ100-141900-  
MARINE  
 
STATION/POSITION TIME TEMP WIND PRES WAVE SWELL
 
AIR SEA DIR/SP/G HT/PER HT/PER  
(UTC) (F) (DEG/KT/KT) (MB) (FT/S) (FT/S)  
BRANDYWINE LGT 1742 37 330/ 21/ 27 1010.3R  
CAPE MAY NJ 1748 37 38 330/ 25/ 32 1009.4R  
LEWES DE 1742 39 44 320/ 26/ 31 1009.7R  
15NM E FENWICK I 1750 43 52 310/ 25/ 29 1009.1R 7/ 5  
OCEAN-CITY-INLET 1742 43 39 340/ 18/ 26 1009.6R  
WACHAPREAGUE VA 1742 46 37 290/ 4/ 15 1009.7R  
THOMAS POINT MD 1800 37 45 330/ 15/ 17 N/A  
GOOSES REEF MD 1800 41 46 340/ 19/ 23 1011.6 3/ 3  
COVE POINT MD 1742 40 350/ 27/ 29 1011.0F  
SOLOMONS ISLAND 1742 42 46 320/ 19/ 25 1009.9R  
BISHOPS HEAD MD 1742 43 37 320/ 19/ 26 1010.3S  
PINEY POINT MD 1742 360/ 21/ 25 N/A  
POTOMAC MD 1800 45 46 330/ 17/ 21 1009.3 2/ 3  
CAMBRIDGE MD 1742 41 41 1011.7R  
LEWISETTA VA 1742 44 43 340/ 16/ 20 1010.4R  
RAPPAHANNOCK LGT 1742 320/ 21/ 26 1010.4R  
STINGRAY PT 1800 45 46 360/ 14/ 16 1010.1 1/ 2  
YORK RVR RNG VA 1742 46 360/ 17/ 19 1010.0R  
YORKTOWN VA 1742 47 47 320/ 14/ 16 1009.4F  
JAMESTOWN VA 1800 43 330/ 10/ 14 N/A  
DOMINION TERM VA 1742 48 340/ 14/ 16 1009.9R  
KIPTOPEKE VA 1742 45 350/ 16/ 21 N/A  
CAPE HENRY VA 1742 48 320/ 15/ 16 N/A  
WILLOUBY STN VA 1742 310/ 10/ 11 1009.7R  
S CRANEY ISL VA 1742 50 340/ 8/ 14 1009.4R  
CAPE HENRY BUOY 1730 53 N/A 4/ 4  
1ST LANDING BUOY 1800 47 48 340/ 14/ 16 1010.0 1/ 2  
CAPE CHARLES BUO 1751 51 N/A 3/ 5  
64NM E OF VA BCH 1750 53 61 290/ 23/ 29 1008.7R 7/ 6 2/ 9  
DUCK PIER NC 1742 49 53 250/ 10/ 13 1009.2R  
44100 DUCK FRF 1745 54 N/A 2/ 3  
44056 DUCK FRF 1730 55 N/A 1/ 7  
OREGON INLET NC 1742 52 41 250/ 5/ 7 1009.9R  
HATTERAS NC 1742 49 50 260/ 10/ 14 1010.6R  
DIAMOND SHLS NC 1750 57 73 260/ 16/ 21 1010.7S 9/ 9 7/ 9  
CAPE LOOKOUT NC 1800 250/ 11/ 13 1011.3F  

 
 
 
CLICK HERE TO GO TO PREVIOUS BULLETINS.

The Nexlab VA Page
The Nexlab NC Page
The Nexlab MD Page Main Text Page